Location: Augustenthal
(51.7167°N, 10.2833°E)
Time: 00:33:18
(UTC+00:00)

Cosmos 1455 Rocket - Pass Details

Date: 27 September 2021
Orbit: 605 x 628 km, 82.5° (Epoch: 15 October)

Event Time Altitude Azimuth Distance (km) Brightness Sun altitude
Exits shadow 21:09:52 16° 0° (N) 1,605 5.6 -34.3°
Drops below altitude 10° 21:10:50 10° 4° (N) 1,985 6.2 -34.4°
Sets 21:13:07 0° 8° (N) 2,899 7.1 -34.6°
